TimeCST,TemperatureF,Dew PointF,Humidity,Sea Level PressureIn,VisibilityMPH,Wind Direction,Wind SpeedMPH,Gust SpeedMPH,PrecipitationIn,Events,Conditions,WindDirDegrees,DateUTC
12:53 AM,39.0,30.9,73,30.08,10.0,SSE,9.2,-,N/A,,Clear,160,2012-11-29 06:53:00
1:53 AM,37.9,30.9,76,30.06,10.0,SSE,8.1,-,N/A,,Clear,160,2012-11-29 07:53:00
2:53 AM,37.9,30.9,76,30.05,10.0,South,6.9,-,N/A,,Clear,180,2012-11-29 08:53:00
3:53 AM,34.0,28.9,82,30.05,10.0,NNW,5.8,-,N/A,,Clear,340,2012-11-29 09:53:00
4:53 AM,32.0,28.0,85,30.04,10.0,Calm,Calm,-,N/A,,Clear,0,2012-11-29 10:53:00
5:53 AM,34.0,28.9,82,30.04,10.0,SSW,6.9,-,N/A,,Clear,200,2012-11-29 11:53:00
6:53 AM,30.9,27.0,85,30.05,9.0,SSW,4.6,-,N/A,,Clear,210,2012-11-29 12:53:00
7:53 AM,28.9,26.1,89,30.05,6.0,Calm,Calm,-,N/A,,Clear,0,2012-11-29 13:53:00
8:53 AM,36.0,30.9,82,30.04,6.0,Calm,Calm,-,N/A,,Haze,0,2012-11-29 14:53:00
9:53 AM,39.2,33.8,81,30.02,8.0,South,3.5,-,N/A,,Clear,180,2012-11-29 15:53:00
10:53 AM,46.9,36.0,66,30.05,10.0,SW,5.8,-,N/A,,Clear,220,2012-11-29 16:53:00
11:53 AM,54.0,39.0,57,30.02,10.0,SW,6.9,-,N/A,,Clear,220,2012-11-29 17:53:00
12:53 PM,57.9,39.0,49,29.99,10.0,Calm,Calm,-,N/A,,Clear,0,2012-11-29 18:53:00
1:53 PM,60.1,37.9,44,29.97,10.0,Variable,3.5,-,N/A,,Clear,0,2012-11-29 19:53:00
2:53 PM,61.0,36.0,39,29.95,10.0,South,8.1,-,N/A,,Clear,190,2012-11-29 20:53:00
3:53 PM,61.0,37.9,42,29.95,10.0,South,6.9,-,N/A,,Clear,180,2012-11-29 21:53:00
4:53 PM,55.9,37.9,51,29.97,10.0,SSW,3.5,-,N/A,,Clear,200,2012-11-29 22:53:00
5:53 PM,52.0,35.1,53,29.96,10.0,South,4.6,-,N/A,,Clear,170,2012-11-29 23:53:00
6:53 PM,50.0,34.0,54,29.99,10.0,Calm,Calm,-,N/A,,Clear,0,2012-11-30 00:53:00
7:53 PM,46.9,33.1,59,30.00,10.0,Calm,Calm,-,N/A,,Clear,0,2012-11-30 01:53:00
8:53 PM,45.0,33.1,63,30.01,10.0,Calm,Calm,-,N/A,,Clear,0,2012-11-30 02:53:00
9:53 PM,51.1,33.1,50,30.01,10.0,South,3.5,-,N/A,,Clear,180,2012-11-30 03:53:00
10:53 PM,51.1,30.0,44,30.01,9.0,South,3.5,-,N/A,,Clear,190,2012-11-30 04:53:00
11:53 PM,41.0,30.0,65,30.02,9.0,Calm,Calm,-,N/A,,Clear,0,2012-11-30 05:53:00